This demonstration page uses our WeatherBlox Daily Observations layout. Learn more.

41.55636, -103.73856

Hourly Observations for July 9, 2019

Temp ( °F °C ) Dew Point ( °F °C ) Humidity (%) Winds ( mph kmh ) Pressure ( in mb ) Visibility ( mi km ) Precip ( " mm )
1:58 am 01:58 Mostly Clear 67 19.2 57 13.9 72 72 NNW 3 6 29.84 1010 10 16.0934 0 0
2:58 am 02:58 Clear 62 16.5 49 9.3 63 63 NW 10 17 29.86 1011 10 16.0934 0 0
3:58 am 03:58 Mostly Cloudy 59 14.9 48 8.7 67 67 W 3 6 29.87 1011 10 16.0934 0 0
4:58 am 04:58 Clear 57 13.8 49 9.3 74 74 W 7 11 29.84 1010 10 16.0934 0 0
5:58 am 05:58 Clear 55 12.5 48 8.9 79 79 WSW 9 15 29.84 1010 10 16.0934 0 0
6:58 am 06:58 Mostly Cloudy 58 14.6 47 8.4 67 67 WNW 16 26 29.85 1011 10 16.0934 0 0
7:58 am 07:58 Partly Cloudy 59 15 47 8.3 64 64 NW 16 26 29.87 1012 10 16.0934 0 0
8:58 am 08:58 Mostly Cloudy with Light Showers 59 15.1 48 8.8 66 66 NNW 13 20 29.88 1012 10 16.0934 0 0
9:58 am 09:58 Mostly Cloudy 57 13.7 48 9 73 73 WNW 6 9 29.95 1014 10 16.0934 0 0
10:58 am 10:58 Clear 54 12.3 48 8.8 79 79 W 9 15 29.96 1015 10 16.0934 0 0
11:58 am 11:58 Sunny 55 13 47 8.4 74 74 W 13 20 29.93 1014 10 16.0934 0 0
12:58 pm 12:58 Sunny 61 15.9 45 7 56 56 WNW 15 24 29.93 1014 10 16.0934 0 0
1:58 pm 13:58 Sunny 63 17.3 45 7.3 52 52 WNW 15 24 29.95 1014 10 16.0934 0 0
2:58 pm 14:58 Sunny 67 19.3 46 8 48 48 WNW 20 31 29.96 1015 10 16.0934 0 0
3:58 pm 15:58 Sunny 71 21.4 45 7 39 39 WNW 16 26 29.97 1015 10 16.0934 0 0
4:58 pm 16:58 Sunny 73 22.6 41 5.2 32 32 WNW 15 24 29.98 1015 10 16.0934 0 0
5:58 pm 17:58 Sunny 75 24.1 46 7.7 35 35 W 12 19 29.97 1015 10 16.0934 0 0
6:58 pm 18:58 Sunny 77 25.1 45 7.2 32 32 W 17 28 29.94 1014 10 16.0934 0 0
7:58 pm 19:58 Mostly Sunny 79 26 41 5.1 26 26 NW 12 19 29.93 1014 10 16.0934 0 0
8:58 pm 20:58 Mostly Cloudy 78 25.3 47 8.4 34 34 NW 7 11 29.95 1014 10 16.0934 0 0
9:58 pm 21:58 Partly Cloudy 78 25.4 45 7.2 31 31 W 13 20 29.95 1014 10 16.0934 0 0
10:58 pm 22:58 Mostly Sunny 78 25.8 47 8.5 33 33 SW 7 11 29.94 1014 10 16.0934 0 0
11:58 pm 23:58 Mostly Cloudy 71 21.7 48 9 44 44 N 16 26 30 1016 10 16.0934 0 0

Powered by AerisWeather